Change the Weather History Date:

Sunday, December 28, 2014

  Actual Average Record
Temperature  
Mean Temperature 46 °F 31 °F  
Max Temperature 52 °F 38 °F 63 °F (1982)
Min Temperature 40 °F 24 °F -2 °F (1872)
Degree Days  
Heating Degree Days 19 34  
Month to date heating degree days 715 834  
Since 1 July heating degree days 1728 1889  
Cooling Degree Days 0 0  
Month to date cooling degree days 0 0  
Year to date cooling degree days 769 747  
Moisture  
Dew Point 35 °F    
Average Humidity 65    
Maximum Humidity 76    
Minimum Humidity 53    
Precipitation  
Precipitation 0.01 in 0.11 in 1.70 in (1967)
Month to date precipitation 6.56 3.46  
Year to date precipitation 45.25 43.45  
Snow  
Snow 0.00 in 0.40 in 6.00 in (1967)
Month to date snowfall 0.3 7.8  
Since 1 July snowfall 2.9 9.1  
Snow Depth 0.00 in    
Sea Level Pressure  
Sea Level Pressure 29.87 in    
Wind  
Wind Speed 14 mph (WSW)    
Max Wind Speed 22 mph    
Max Gust Speed 31 mph    
Visibility 10 miles    
Events Rain    
T = Trace of Precipitation, MM = Missing Value Source: NWS Daily Summary

Daily Weather History Graph

Daily Weather History Graph

Search for Another Location

Airport or City:

Trip Planner

Search our weather history database for the weather conditions in past years. The results will help you decide how hot, cold, wet, or windy it might be!

Date:

Astronomy

Dec. 28, 2014 Rise Set
Actual Time 7:12 AM EST 4:18 PM EST
Civil Twilight 6:40 AM EST 4:50 PM EST
Nautical Twilight 6:05 AM EST 5:26 PM EST
Astronomical Twilight 5:31 AM EST 6:00 PM EST
Moon 11:25 AM EST (12/28) No Moon Set
Length of Visible Light 10h 10m
Length of Day
9h 06m
Waxing Crescent, 49% of the Moon is Illuminated
Dec 28
Waxing Crescent
Dec 28
First Quarter
Jan 4
Full
Jan 13
Last Quarter
Jan 20
New

Hourly Weather History & Observations

Time (EST) Temp. Windchill Dew Point Humidity Pressure Visibility Wind Dir Wind Speed Gust Speed Precip Events Conditions
12:54 AM 45.0 °F 37.9 °F 34.0 °F 65% 29.99 in 10.0 mi SW 16.1 mph - N/A   Overcast
1:54 AM 45.0 °F 38.5 °F 34.0 °F 65% 29.94 in 10.0 mi SSW 13.8 mph - N/A   Overcast
2:54 AM 45.0 °F 37.9 °F 34.0 °F 65% 29.91 in 10.0 mi SW 16.1 mph - N/A   Overcast
3:54 AM 45.0 °F 38.9 °F 33.1 °F 63% 29.89 in 10.0 mi SW 12.7 mph - N/A   Overcast
4:54 AM 45.0 °F 39.3 °F 34.0 °F 65% 29.88 in 10.0 mi SW 11.5 mph - N/A   Overcast
5:54 AM 45.0 °F 40.6 °F 35.1 °F 68% 29.85 in 10.0 mi SW 8.1 mph - N/A   Overcast
6:54 AM 45.0 °F 40.1 °F 36.0 °F 71% 29.85 in 10.0 mi SSW 9.2 mph - 0.00 in   Overcast
7:54 AM 46.0 °F 40.6 °F 37.0 °F 71% 29.83 in 10.0 mi SW 11.5 mph - N/A   Overcast
8:54 AM 46.0 °F 39.6 °F 39.9 °F 79% 29.82 in 10.0 mi SW 15.0 mph - 0.01 in   Overcast
9:54 AM 46.9 °F - 39.9 °F 77% 29.83 in 10.0 mi WSW 13.8 mph - 0.00 in   Overcast
10:54 AM 48.0 °F - 42.1 °F 80% 29.79 in 10.0 mi WSW 11.5 mph - 0.00 in Rain Light Rain
11:54 AM 48.9 °F - 42.1 °F 77% 29.77 in 10.0 mi WSW 12.7 mph 19.6 mph 0.00 in   Overcast
12:54 PM 50.0 °F - 42.1 °F 74% 29.77 in 10.0 mi WSW 11.5 mph - N/A   Overcast
1:54 PM 51.1 °F - 39.9 °F 66% 29.79 in 10.0 mi West 19.6 mph 25.3 mph N/A   Overcast
2:54 PM 52.0 °F - 39.0 °F 61% 29.81 in 10.0 mi WNW 19.6 mph 27.6 mph N/A   Overcast
3:54 PM 48.9 °F - 34.0 °F 56% 29.83 in 10.0 mi WNW 15.0 mph 21.9 mph N/A   Overcast
4:54 PM 46.9 °F - 32.0 °F 56% 29.85 in 10.0 mi West 16.1 mph - N/A   Overcast
5:54 PM 46.9 °F - 32.0 °F 56% 29.87 in 10.0 mi West 11.5 mph 19.6 mph N/A   Overcast
6:54 PM 46.0 °F 39.9 °F 30.9 °F 56% 29.90 in 10.0 mi West 13.8 mph 26.5 mph N/A   Overcast
7:54 PM 45.0 °F 37.6 °F 30.0 °F 56% 29.91 in 10.0 mi West 17.3 mph 21.9 mph N/A   Overcast
8:54 PM 44.1 °F 38.6 °F 28.9 °F 55% 29.93 in 10.0 mi West 10.4 mph - N/A   Overcast
9:54 PM 42.1 °F 35.7 °F 28.9 °F 60% 29.95 in 10.0 mi WNW 11.5 mph - N/A   Mostly Cloudy
10:54 PM 41.0 °F 33.9 °F 28.0 °F 60% 29.97 in 10.0 mi WNW 12.7 mph - N/A   Mostly Cloudy
11:54 PM 39.9 °F 32.5 °F 27.0 °F 60% 29.99 in 10.0 mi WNW 12.7 mph - N/A   Mostly Cloudy